Houlton, ME

3:20 PM EDT on July 23, 2017 (GMT -0400)
Houlton International

Weather History for KHUL - June, 2013

Change the Weather History Date:

Friday, June 7, 2013

  Actual Average Record
Temperature  
Mean Temperature 60 °F 58 °F  
Max Temperature 68 °F 70 °F 86 °F (1991)
Min Temperature 52 °F 45 °F 30 °F (1958)
Degree Days  
Heating Degree Days 5 8  
Month to date heating degree days 42 60  
Since 1 June heating degree days 42 60  
Since 1 July heating degree days 8392 9067  
Cooling Degree Days 0 1  
Month to date cooling degree days 10 3  
Year to date cooling degree days 14 7  
Since 1 June cooling degree days 10 3  
Growing Degree Days 9 (Base 50)    
Moisture  
Dew Point 48 °F    
Average Humidity 74    
Maximum Humidity 100    
Minimum Humidity 48    
Precipitation  
Precipitation 0.04 in 0.11 in 2.62 in (1952)
Month to date precipitation 1.02 0.75  
Year to date precipitation 12.25 15.38  
Snow  
Snow 0.00 in 0.00 in 0.00 in (2003)
Month to date snowfall 0.0 0.0  
Since 1 June snowfall 0.0 0.0  
Snow Depth 0.00 in    
Sea Level Pressure  
Sea Level Pressure 30.12 in    
Wind  
Wind Speed 3 mph (East)    
Max Wind Speed 12 mph    
Max Gust Speed 16 mph    
Visibility 10 miles    
Events Rain    
T = Trace of Precipitation, MM = Missing Value Source: NWS Daily Summary

Daily Weather History Graph

Daily Weather History Graph

Search for Another Location

Airport or City:

Trip Planner

Search our weather history database for the weather conditions in past years. The results will help you decide how hot, cold, wet, or windy it might be!

Date:

Astronomy

Jun. 07, 2013 Rise Set
Actual Time 4:40 AM EDT 8:19 PM EDT
Civil Twilight 4:02 AM EDT 8:58 PM EDT
Nautical Twilight 3:11 AM EDT 9:49 PM EDT
Astronomical Twilight 2:02 AM EDT 10:59 PM EDT
Moon 4:05 AM EDT (6/7) 7:27 PM EDT (6/7)
Length of Visible Light 16h 55m
Length of Day
15h 39m
Waning Crescent, 1% of the Moon is Illuminated
Jun 7
Waning Crescent
Jun 8
New
Jun 16
First Quarter
Jun 23
Full
Jun 30
Last Quarter

Hourly Weather History & Observations

Time (EDT) Temp. Dew Point Humidity Pressure Visibility Wind Dir Wind Speed Gust Speed Precip Events Conditions
12:53 AM 57.0 °F 45.0 °F 64% 30.15 in 10.0 mi SSW 4.6 mph - N/A   Overcast
1:53 AM 55.9 °F 45.0 °F 67% 30.15 in 10.0 mi Calm Calm - N/A   Overcast
2:53 AM 54.0 °F 46.9 °F 77% 30.15 in 10.0 mi Calm Calm - N/A   Overcast
3:53 AM 53.1 °F 50.0 °F 89% 30.16 in 10.0 mi Calm Calm - 0.00 in Rain Light Rain
4:53 AM 52.0 °F 50.0 °F 93% 30.16 in 9.0 mi Calm Calm - 0.00 in Rain Light Rain
5:53 AM 52.0 °F 51.1 °F 97% 30.16 in 8.0 mi Calm Calm - 0.01 in Rain Light Rain
6:53 AM 53.1 °F 51.1 °F 93% 30.16 in 10.0 mi NNE 4.6 mph - 0.01 in Rain Light Rain
7:53 AM 54.0 °F 51.1 °F 90% 30.15 in 10.0 mi NNE 6.9 mph - 0.00 in Rain Light Rain
8:53 AM 54.0 °F 52.0 °F 93% 30.16 in 10.0 mi NNE 5.8 mph - 0.00 in Rain Light Rain
9:53 AM 55.9 °F 51.1 °F 84% 30.16 in 10.0 mi NE 5.8 mph - 0.02 in   Overcast
10:53 AM 57.9 °F 52.0 °F 81% 30.16 in 10.0 mi NE 4.6 mph - N/A   Overcast
11:53 AM 61.0 °F 52.0 °F 72% 30.16 in 10.0 mi ENE 5.8 mph - 0.00 in   Overcast
12:53 PM 64.0 °F 52.0 °F 65% 30.12 in 10.0 mi Variable 5.8 mph - N/A   Clear
1:53 PM 66.0 °F 48.9 °F 54% 30.10 in 10.0 mi East 8.1 mph - N/A   Mostly Cloudy
2:53 PM 66.0 °F 46.0 °F 48% 30.09 in 10.0 mi Calm Calm - N/A   Mostly Cloudy
3:53 PM 66.0 °F 48.0 °F 52% 30.09 in 10.0 mi South 5.8 mph - N/A   Overcast
4:53 PM 64.0 °F 46.9 °F 54% 30.10 in 10.0 mi Calm Calm - N/A   Overcast
5:53 PM 63.0 °F 48.9 °F 60% 30.09 in 10.0 mi Calm Calm - N/A   Overcast
6:53 PM 61.0 °F 45.0 °F 56% 30.10 in 10.0 mi South 3.5 mph - N/A   Overcast
7:53 PM 59.0 °F 46.0 °F 62% 30.10 in 10.0 mi SSE 3.5 mph - 0.00 in Rain Light Rain
8:53 PM 57.0 °F 46.9 °F 69% 30.09 in 10.0 mi Calm Calm - 0.00 in   Overcast
9:53 PM 55.9 °F 45.0 °F 67% 30.09 in 10.0 mi ESE 3.5 mph - N/A   Overcast
10:53 PM 55.9 °F 45.0 °F 67% 30.07 in 10.0 mi SE 3.5 mph - N/A   Overcast
11:53 PM 57.0 °F 45.0 °F 64% 30.06 in 10.0 mi Calm Calm - N/A   Overcast